Starlink 32628

operational
NORAD ID: 62122 Int'l Des: 2024-222 Owner: SPXS Country: US Constellation: starlink
LEOCIRCULAR

About Starlink 32628

Description loading...

Live Position

Loading 3D Globe...

Upcoming Passes

Altitude History

Altitude vs Time

uPlot chart will show altitude changes over time

Two-Line Element Set

1 62122U 24222J 26035.17373013 .00040409 00000-0 14693-2 0 9998
2 62122 43.0017 325.4237 0001277 253.8537 106.2174 15.27593467 67795
Epoch: Feb 4, 2026 • Age: 25 hours

Current Status

Altitude 490.2 km
Velocity 7.62 km/s
Sub-Earth Point -30.31°S, 27.61°W
Launch Date Nov 27, 2024
Age 1.1 years
Type internet

Technical Details

Classification Payload
Mass 730.00 kg
Dry Mass 700.00 kg
Total Mass 730.00 kg
Length 0.30 m
Diameter 4.10 m
Span 29.00 m
Shape Box + pan
Manufacturer SPXS
Bus Type Starlink V2M
Phase Status In Orbit
Owner/State SPXS/US

Large Constellations

Loading constellations...